AZTECHSAT-1

Last updated on Sat Dec 11 2021 00:02:04 GMT+0000 (Coordinated Universal Time)

1 45261U 98067RE 21343.89041861 .09093063 12441-4 68050-3 0 9996 2 45261 51.6085 132.4222 0007122 296.3794 63.6501 16.39662023103073

Satellite not in orbit